TimeMDT,TemperatureF,Dew PointF,Humidity,Sea Level PressureIn,VisibilityMPH,Wind Direction,Wind SpeedMPH,Gust SpeedMPH,PrecipitationIn,Events,Conditions,WindDirDegrees,DateUTC
12:56 AM,55.0,45.0,69,29.75,-9999.0,North,-9999.0,-,N/A,,Unknown,0,2012-10-03 06:56:00
1:56 AM,51.1,45.0,80,29.76,-9999.0,North,-9999.0,-,N/A,,Unknown,0,2012-10-03 07:56:00
2:56 AM,50.0,44.1,80,29.75,-9999.0,North,-9999.0,-,N/A,,Unknown,0,2012-10-03 08:56:00
3:56 AM,51.1,42.1,71,29.74,-9999.0,North,-9999.0,-,N/A,,Unknown,0,2012-10-03 09:56:00
4:56 AM,48.0,41.0,77,29.76,-9999.0,North,-9999.0,-,N/A,,Unknown,0,2012-10-03 10:56:00
5:56 AM,48.0,42.1,80,29.76,-9999.0,North,-9999.0,-,N/A,,Unknown,0,2012-10-03 11:56:00
6:56 AM,52.0,41.0,66,29.78,-9999.0,North,-9999.0,-,N/A,,Unknown,0,2012-10-03 12:56:00
7:56 AM,59.0,42.1,53,29.77,-9999.0,North,-9999.0,-,N/A,,Unknown,0,2012-10-03 13:56:00
8:56 AM,69.1,39.9,35,29.76,-9999.0,North,-9999.0,-,N/A,,Unknown,0,2012-10-03 14:56:00
9:56 AM,77.0,33.1,20,29.75,-9999.0,North,-9999.0,-,N/A,,Unknown,0,2012-10-03 15:56:00
10:56 AM,81.0,30.9,16,29.73,-9999.0,North,-9999.0,-,N/A,,Unknown,0,2012-10-03 16:56:00
11:56 AM,82.9,28.0,14,29.71,-9999.0,North,-9999.0,-,N/A,,Unknown,0,2012-10-03 17:56:00
12:56 PM,84.9,26.1,12,29.69,-9999.0,North,-9999.0,-,N/A,,Unknown,0,2012-10-03 18:56:00
1:56 PM,87.1,26.1,11,29.68,-9999.0,North,-9999.0,-,N/A,,Unknown,0,2012-10-03 19:56:00
2:56 PM,87.1,24.1,10,29.68,-9999.0,North,-9999.0,-,N/A,,Unknown,0,2012-10-03 20:56:00
3:56 PM,87.1,24.1,10,29.67,-9999.0,North,-9999.0,-,N/A,,Unknown,0,2012-10-03 21:56:00
4:56 PM,87.1,25.0,10,29.68,-9999.0,North,-9999.0,-,N/A,,Unknown,0,2012-10-03 22:56:00
5:56 PM,81.0,32.0,17,29.70,-9999.0,North,-9999.0,-,N/A,,Unknown,0,2012-10-03 23:56:00
6:56 PM,71.1,35.1,27,29.73,-9999.0,NNW,34.5,-,N/A,,Unknown,330,2012-10-04 00:56:00
7:56 PM,69.1,42.1,38,29.75,-9999.0,North,-9999.0,-,N/A,,Unknown,0,2012-10-04 01:56:00
8:56 PM,64.0,46.9,54,29.75,-9999.0,North,-9999.0,-,N/A,,Unknown,0,2012-10-04 02:56:00
9:56 PM,62.1,48.0,60,29.75,-9999.0,North,-9999.0,-,N/A,,Unknown,0,2012-10-04 03:56:00
10:56 PM,59.0,37.0,44,29.87,-9999.0,North,-9999.0,-,N/A,,Unknown,0,2012-10-04 04:56:00
11:56 PM,53.1,37.0,55,29.98,-9999.0,North,-9999.0,-,N/A,,Unknown,0,2012-10-04 05:56:00